Date String (YYYY-MM-DD hh:mm:ss) UTC,Instrument flags,absolute air pressure of the measurement (hPa),sample flow rate (lpm),inlet stack bypass flow (lpm),air temperature of the measurement (°C),ambient temperature measured by the external sensor (°C),aerosol sample conditioner tube jacket temperature (°C),OPC LED temperature (°C),internal box temperature (°C),relative humidity of the measurement (%),span deviation,mass concentration of particles derived from Lorenz-Mie calculation of OPC scattering (μg/m³),mass concentration of particles derived from Lorenz-Mie calculation of OPC scattering (μg/m³),mass concentration of particles derived from Lorenz-Mie calculation of OPC scattering (μg/m³)
DateTimeUTC,F1_M11,P_M11,Q1_M11,Q2_M11,T1_M11,T2_M11,T3_M11,T4_M11,T5_M11,U1_M11,ZSPAN_M11,X0_M11,X2_M11,X1_M11
2024-03-23 04:00:00,SystemResetWarning,0827.2,5.00,000.00,024.9,024.1,000.0,033.5,026.8,10.6,0000.0,0012.64,0004.30,0002.17
2024-03-23 04:01:00,SystemResetWarning,0827.3,5.01,000.00,024.9,024.1,000.0,033.5,026.8,10.6,0000.0,0012.93,0004.29,0002.20
2024-03-23 04:02:00,SystemResetWarning,0827.2,5.00,000.00,024.9,024.1,000.0,033.5,026.7,11.1,0000.0,0012.38,0004.27,0002.20
2024-03-23 04:03:00,SystemResetWarning,0827.3,4.98,000.00,024.9,024.1,000.0,033.5,026.7,11.4,0000.0,0012.61,0004.29,0002.21
2024-03-23 04:04:00,SystemResetWarning,0827.3,5.01,000.00,024.9,024.1,000.0,033.5,026.7,11.3,0000.0,0012.19,0004.27,0002.20
2024-03-23 04:05:00,SystemResetWarning,0827.3,5.01,000.00,024.9,024.1,000.0,033.5,026.7,11.4,0000.0,0011.90,0004.27,0002.21
2024-03-23 04:06:00,SystemResetWarning,0827.2,5.00,000.00,024.9,024.1,000.0,033.5,026.7,11.4,0000.0,0012.09,0004.30,0002.20
2024-03-23 04:07:00,SystemResetWarning,0827.2,5.00,000.00,024.9,024.1,000.0,033.5,026.7,11.2,0000.0,0012.41,0004.37,0002.21
2024-03-23 04:08:00,SystemResetWarning,0827.2,5.00,000.00,024.9,024.1,000.0,033.5,026.7,11.4,0000.0,0012.92,0004.43,0002.21
2024-03-23 04:09:00,SystemResetWarning,0827.2,5.00,000.00,024.9,024.1,000.0,033.5,026.7,10.9,0000.0,0012.92,0004.39,0002.20
2024-03-23 04:10:00,SystemResetWarning,0827.2,4.99,000.00,024.9,024.1,000.0,033.5,026.7,10.6,0000.0,0012.97,0004.41,0002.20
2024-03-23 04:11:00,SystemResetWarning,0827.2,5.00,000.00,024.9,024.1,000.0,033.5,026.7,10.7,0000.0,0012.73,0004.42,0002.19
2024-03-23 04:12:00,SystemResetWarning,0827.2,5.00,000.00,024.9,024.1,000.0,033.4,026.7,10.8,0000.0,0012.53,0004.42,0002.17
2024-03-23 04:13:00,SystemResetWarning,0827.2,5.00,000.00,024.8,024.1,000.0,033.4,026.7,11.5,0000.0,0012.47,0004.37,0002.17
2024-03-23 04:14:00,SystemResetWarning,0827.2,5.01,000.00,024.8,024.1,000.0,033.4,026.7,11.9,0000.0,0011.92,0004.33,0002.13
2024-03-23 04:15:00,SystemResetWarning,0827.2,5.00,000.00,024.8,024.1,000.0,033.4,026.7,12.1,0000.0,0011.87,0004.28,0002.12
2024-03-23 04:16:00,SystemResetWarning,0827.2,5.01,000.00,024.8,024.0,000.0,033.4,026.7,11.9,0000.0,0011.82,0004.21,0002.09
2024-03-23 04:17:00,SystemResetWarning,0827.2,5.00,000.00,024.8,024.0,000.0,033.4,026.7,11.4,0000.0,0011.44,0004.14,0002.07
2024-03-23 04:18:00,SystemResetWarning,0827.2,4.99,000.00,024.8,024.0,000.0,033.4,026.7,10.9,0000.0,0011.31,0004.10,0002.08
2024-03-23 04:19:00,SystemResetWarning,0827.2,4.99,000.00,024.8,024.0,000.0,033.4,026.7,10.8,0000.0,0011.30,0004.11,0002.10
2024-03-23 04:20:00,SystemResetWarning,0827.1,5.00,000.00,024.8,024.0,000.0,033.4,026.7,11.2,0000.0,0011.04,0004.11,0002.10
2024-03-23 04:21:00,SystemResetWarning,0827.1,5.01,000.00,024.8,024.0,000.0,033.4,026.7,11.3,0000.0,0010.81,0004.09,0002.11
2024-03-23 04:22:00,SystemResetWarning,0827.2,5.01,000.00,024.8,024.0,000.0,033.4,026.7,11.3,0000.0,0010.37,0004.06,0002.12
2024-03-23 04:23:00,SystemResetWarning,0827.1,4.99,000.00,024.8,024.0,000.0,033.4,026.7,11.1,0000.0,0010.55,0004.03,0002.13
2024-03-23 04:24:00,SystemResetWarning,0827.1,4.99,000.00,024.8,024.0,000.0,033.4,026.6,10.9,0000.0,0010.85,0004.12,0002.12
2024-03-23 04:25:00,SystemResetWarning,0827.1,5.00,000.00,024.8,024.0,000.0,033.4,026.6,10.7,0000.0,0011.00,0004.18,0002.14
2024-03-23 04:26:00,SystemResetWarning,0827.1,5.00,000.00,024.8,024.0,000.0,033.4,026.6,10.6,0000.0,0011.36,0004.22,0002.16
2024-03-23 04:27:00,SystemResetWarning,0827.1,5.00,000.00,024.8,024.0,000.0,033.4,026.6,10.9,0000.0,0011.81,0004.21,0002.18
2024-03-23 04:28:00,SystemResetWarning,0827.1,5.00,000.00,024.8,024.0,000.0,033.4,026.6,11.2,0000.0,0012.09,0004.34,0002.19
2024-03-23 04:29:00,SystemResetWarning,0827.1,5.01,000.00,024.8,024.0,000.0,033.4,026.6,11.0,0000.0,0012.11,0004.38,0002.19
2024-03-23 04:30:00,SystemResetWarning,0827.1,5.00,000.00,024.7,023.9,000.0,033.4,026.6,10.9,0000.0,0011.62,0004.33,0002.18
2024-03-23 04:31:00,SystemResetWarning,0827.1,5.00,000.00,024.7,023.9,000.0,033.4,026.6,11.5,0000.0,0012.03,0004.33,0002.20
2024-03-23 04:32:00,SystemResetWarning,0827.2,4.99,000.00,024.7,023.9,000.0,033.3,026.6,11.3,0000.0,0012.14,0004.32,0002.20
2024-03-23 04:33:00,SystemResetWarning,0827.1,4.99,000.00,024.7,023.9,000.0,033.3,026.6,11.1,0000.0,0012.38,0004.40,0002.20
2024-03-23 04:34:00,SystemResetWarning,0827.1,5.00,000.00,024.7,023.9,000.0,033.3,026.6,10.8,0000.0,0012.17,0004.46,0002.21
2024-03-23 04:35:00,SystemResetWarning,0827.1,5.01,000.00,024.7,023.9,000.0,033.3,026.6,10.7,0000.0,0011.95,0004.40,0002.23
2024-03-23 04:36:00,SystemResetWarning,0827.1,5.01,000.00,024.7,023.9,000.0,033.3,026.6,10.7,0000.0,0012.12,0004.36,0002.25
2024-03-23 04:37:00,SystemResetWarning,0827.1,5.00,000.00,024.7,023.9,000.0,033.3,026.6,11.1,0000.0,0012.21,0004.35,0002.23
2024-03-23 04:38:00,SystemResetWarning,0827.1,4.99,000.00,024.7,023.9,000.0,033.3,026.6,10.8,0000.0,0011.70,0004.38,0002.22
2024-03-23 04:39:00,SystemResetWarning,0827.0,4.99,000.00,024.7,023.8,000.0,033.3,026.5,10.7,0000.0,0011.48,0004.31,0002.20
2024-03-23 04:40:00,SystemResetWarning,0827.1,5.00,000.00,024.7,023.8,000.0,033.3,026.5,10.7,0000.0,0011.18,0004.19,0002.18
2024-03-23 04:41:00,SystemResetWarning,0827.1,5.00,000.00,024.7,023.8,000.0,033.3,026.5,10.7,0000.0,0011.15,0004.16,0002.17
2024-03-23 04:42:00,SystemResetWarning,0827.1,5.01,000.00,024.7,023.8,000.0,033.3,026.5,10.5,0000.0,0010.80,0004.16,0002.16
2024-03-23 04:43:00,SystemResetWarning,0827.0,5.01,000.00,024.6,023.8,000.0,033.3,026.5,10.5,0000.0,0011.59,0004.20,0002.14
2024-03-23 04:44:00,SystemResetWarning,0827.1,4.99,000.00,024.6,023.8,000.0,033.3,026.5,10.5,0000.0,0011.64,0004.15,0002.12
2024-03-23 04:45:00,SystemResetWarning,0827.1,4.98,000.00,024.6,023.8,000.0,033.3,026.5,10.4,0000.0,0011.42,0004.11,0002.12
2024-03-23 04:46:00,SystemResetWarning,0827.1,5.00,000.00,024.6,023.8,000.0,033.2,026.5,10.5,0000.0,0011.40,0004.12,0002.12
2024-03-23 04:47:00,SystemResetWarning,0827.1,5.01,000.00,024.6,023.8,000.0,033.2,026.5,10.5,0000.0,0011.43,0004.13,0002.10
2024-03-23 04:48:00,SystemResetWarning,0827.0,5.01,000.00,024.6,023.8,000.0,033.2,026.5,10.6,0000.0,0011.09,0004.16,0002.10
2024-03-23 04:49:00,SystemResetWarning,0827.1,5.00,000.00,024.6,023.8,000.0,033.2,026.4,10.7,0000.0,0011.23,0004.19,0002.10
2024-03-23 04:50:00,SystemResetWarning,0827.1,5.00,000.00,024.6,023.8,000.0,033.2,026.5,10.8,0000.0,0011.39,0004.22,0002.09
2024-03-23 04:51:00,SystemResetWarning,0827.0,5.00,000.00,024.6,023.8,000.0,033.2,026.5,10.8,0000.0,0011.53,0004.26,0002.08
2024-03-23 04:52:00,SystemResetWarning,0827.1,5.00,000.00,024.6,023.7,000.0,033.2,026.5,11.0,0000.0,0011.63,0004.30,0002.06
2024-03-23 04:53:00,SystemResetWarning,0827.0,5.00,000.00,024.6,023.7,000.0,033.2,026.4,11.3,0000.0,0011.60,0004.27,0002.06
2024-03-23 04:54:00,SystemResetWarning,0827.1,5.00,000.00,024.6,023.7,000.0,033.2,026.4,11.4,0000.0,0010.59,0004.18,0002.03
2024-03-23 04:55:00,SystemResetWarning,0827.1,5.00,000.00,024.6,023.7,000.0,033.2,026.4,11.2,0000.0,0010.43,0004.11,0002.02
2024-03-23 04:56:00,SystemResetWarning,0827.1,4.99,000.00,024.5,023.7,000.0,033.2,026.4,11.1,0000.0,0011.10,0004.08,0002.00
2024-03-23 04:57:00,SystemResetWarning,0827.1,5.00,000.00,024.5,023.7,000.0,033.2,026.4,10.8,0000.0,0011.21,0004.07,0001.98
2024-03-23 04:58:00,SystemResetWarning,0827.0,5.00,000.00,024.5,023.7,000.0,033.2,026.4,10.8,0000.0,0011.21,0004.04,0001.96
2024-03-23 04:59:00,SystemResetWarning,0827.0,5.00,000.00,024.5,023.7,000.0,033.1,026.4,10.7,0000.0,0010.88,0003.96,0001.96
